QPF
0.00 0.00 0.00 0.00 0.00 0.00 0.00 0.01 0.03 0.04 0.01 0.00 0.04 0.10 0.19 0.22 0.22 0.24 0.18 0.15 0.11 0.09 0.09 0.05 0.03 0.02 0.03 0.03 0.02 0.02 0.01 0.00 0.00 0.00 0.00 0.00 0.00 0.00 0.00 0.00 0.00 0.00 0.00 0.00
0.00 0.00 0.00 0.00 0.00 0.00 0.00 0.02 0.05 0.03 0.01 0.00 0.03 0.09 0.07 0.06 0.09 0.12 0.11 0.09 0.06 0.07 0.09 0.04 0.03 0.02 0.01 0.01 0.01 0.01 0.00 0.00 0.00 0.00 0.00 0.00 0.00 0.00 0.00 0.00 0.00 0.00 0.00 0.00
0.00 0.00 0.00 0.00 0.00 0.00 0.01 0.02 0.02 0.01 0.01 0.02 0.05 0.15 0.10 0.03 0.03 0.06 0.09 0.07 0.04 0.04 0.06 0.03 0.01 0.01 0.00 0.00 0.00 0.00 0.00 0.01 0.01 0.00 0.00 0.00 0.01 0.01 0.00 0.00 0.00 0.00 0.00 0.00
0.00 0.00 0.00 0.00 0.00 0.00 0.01 0.01 0.00 0.00 0.01 0.06 0.06 0.14 0.11 0.03 0.02 0.05 0.05 0.04 0.03 0.02 0.01 0.01 0.00 0.00 0.00 0.00 0.00 0.00 0.01 0.01 0.01 0.01 0.01 0.01 0.01 0.01 0.01 0.00 0.00 0.00 0.00 0.00
0.00 0.00 0.00 0.00 0.00 0.00 0.00 0.00 0.00 0.01 0.02 0.07 0.06 0.08 0.07 0.03 0.05 0.04 0.02 0.01 0.00 0.00 0.00 0.00 0.00 0.00 0.00 0.00 0.00 0.00 0.03 0.03 0.02 0.01 0.01 0.01 0.01 0.01 0.00 0.00 0.00 0.00 0.00 0.00
0.00 0.00 0.00 0.00 0.00 0.00 0.00 0.00 0.03 0.05 0.07 0.14 0.06 0.04 0.04 0.02 0.02 0.01 0.00 0.00 0.00 0.00 0.00 0.00 0.00 0.00 0.00 0.00 0.00 0.00 0.03 0.04 0.03 0.01 0.01 0.01 0.01 0.00 0.00 0.00 0.00 0.00 0.00 0.00
0.01 0.00 0.00 0.00 0.00 0.00 0.00 0.00 0.05 0.11 0.17 0.17 0.05 0.01 0.01 0.01 0.00 0.00 0.00 0.00 0.00 0.00 0.00 0.00 0.00 0.00 0.00 0.00 0.00 0.00 0.02 0.03 0.02 0.01 0.01 0.00 0.00 0.00 0.00 0.00 0.00 0.00 0.00 0.00
0.00 0.01 0.01 0.00 0.00 0.00 0.00 0.00 0.00 0.02 0.03 0.04 0.01 0.01 0.00 0.00 0.00 0.00 0.00 0.00 0.00 0.00 0.00 0.00 0.00 0.00 0.00 0.00 0.00 0.00 0.01 0.01 0.01 0.00 0.00 0.00 0.00 0.00 0.00 0.00 0.00 0.00 0.00 0.00
0.00 0.00 0.00 0.00 0.00 0.00 0.00 0.00 0.00 0.00 0.00 0.01 0.01 0.00 0.00 0.00 0.00 0.00 0.00 0.00 0.00 0.00 0.00 0.00 0.00 0.00 0.00 0.00 0.00 0.00 0.00 0.00 0.00 0.00 0.00 0.00 0.00 0.00 0.00 0.00 0.00 0.00 0.00 0.00
0.00 0.00 0.00 0.00 0.00 0.00 0.00 0.00 0.00 0.00 0.00 0.01 0.03 0.03 0.02 0.00 0.00 0.00 0.00 0.00 0.00 0.00 0.00 0.00 0.00 0.00 0.00 0.00 0.00 0.00 0.00 0.00 0.00 0.00 0.00 0.00 0.00 0.00 0.00 0.00 0.00 0.00 0.00 0.00
0.00 0.00 0.00 0.00 0.00 0.00 0.00 0.00 0.00 0.00 0.00 0.00 0.03 0.05 0.02 0.00 0.00 0.00 0.00 0.00 0.00 0.00 0.00 0.00 0.00 0.00 0.00 0.00 0.00 0.00 0.00 0.00 0.00 0.00 0.00 0.00 0.00 0.00 0.00 0.00 0.00 0.00 0.00 0.00
0.00 0.00 0.00 0.00 0.00 0.00 0.00 0.00 0.00 0.00 0.00 0.00 0.00 0.01 0.01 0.00 0.00 0.00 0.00 0.00 0.00 0.00 0.00 0.00 0.00 0.00 0.00 0.00 0.00 0.00 0.00 0.00 0.00 0.00 0.00 0.00 0.00 0.00 0.00 0.00 0.00 0.00 0.00 0.00
0.00 0.00 0.00 0.02 0.04 0.02 0.00 0.00 0.00 0.00 0.00 0.00 0.00 0.01 0.01 0.00 0.00 0.00 0.00 0.00 0.00 0.00 0.00 0.00 0.00 0.00 0.00 0.00 0.00 0.00 0.00 0.00 0.00 0.00 0.00 0.00 0.00 0.00 0.00 0.00 0.00 0.00 0.00 0.00
0.00 0.00 0.00 0.02 0.03 0.02 0.01 0.00 0.00 0.00 0.00 0.00 0.00 0.01 0.00 0.00 0.00 0.00 0.00 0.00 0.00 0.00 0.00 0.00 0.00 0.00 0.00 0.00 0.00 0.00 0.00 0.00 0.00 0.00 0.00 0.00 0.00 0.00 0.00 0.00 0.00 0.00 0.00 0.00
0.00 0.00 0.00 0.00 0.00 0.00 0.00 0.00 0.00 0.00 0.00 0.00 0.00 0.00 0.00 0.00 0.00 0.00 0.00 0.00 0.00 0.00 0.00 0.00 0.00 0.00 0.00 0.00 0.00 0.00 0.00 0.00 0.00 0.00 0.00 0.00 0.00 0.00 0.00 0.00 0.00 0.00 0.00 0.00
0.00 0.00 0.00 0.00 0.00 0.00 0.00 0.00 0.00 0.00 0.00 0.00 0.00 0.00 0.00 0.00 0.00 0.00 0.00 0.00 0.00 0.00 0.00 0.00 0.00 0.00 0.00 0.00 0.00 0.00 0.00 0.00 0.00 0.00 0.00 0.00 0.00 0.00 0.00 0.00 0.00 0.00 0.00 0.00
0.00 0.00 0.00 0.00 0.00 0.01 0.00 0.00 0.00 0.00 0.00 0.00 0.00 0.00 0.00 0.00 0.00 0.00 0.00 0.00 0.00 0.00 0.00 0.00 0.00 0.00 0.00 0.00 0.00 0.00 0.00 0.00 0.00 0.00 0.00 0.00 0.00 0.00 0.00 0.00 0.00 0.00 0.00 0.00
0.00 0.00 0.00 0.00 0.00 0.00 0.01 0.01 0.00 0.00 0.00 0.00 0.00 0.00 0.00 0.00 0.00 0.00 0.00 0.00 0.00 0.00 0.00 0.00 0.00 0.00 0.00 0.00 0.00 0.00 0.00 0.00 0.00 0.00 0.00 0.00 0.00 0.00 0.00 0.00 0.00 0.00 0.00 0.00
0.00 0.00 0.00 0.00 0.01 0.02 0.03 0.02 0.01 0.01 0.01 0.00 0.00 0.00 0.00 0.00 0.00 0.00 0.00 0.00 0.00 0.00 0.00 0.00 0.00 0.00 0.00 0.00 0.00 0.00 0.00 0.00 0.00 0.00 0.00 0.00 0.00 0.00 0.00 0.00 0.00 0.00 0.00 0.00
0.00 0.00 0.00 0.00 0.00 0.01 0.02 0.04 0.02 0.01 0.02 0.02 0.02 0.01 0.00 0.00 0.00 0.00 0.00 0.00 0.00 0.00 0.00 0.00 0.00 0.00 0.00 0.00 0.00 0.00 0.00 0.00 0.00 0.00 0.00 0.00 0.00 0.00 0.00 0.00 0.00 0.00 0.00 0.00
0.02 0.01 0.00 0.00 0.00 0.02 0.03 0.02 0.02 0.04 0.06 0.03 0.01 0.00 0.00 0.00 0.00 0.00 0.00 0.00 0.00 0.00 0.00 0.00 0.00 0.00 0.00 0.00 0.00 0.00 0.00 0.00 0.00 0.00 0.00 0.00 0.00 0.00 0.00 0.00 0.00 0.00 0.00 0.00
0.01 0.01 0.00 0.00 0.02 0.04 0.03 0.03 0.04 0.05 0.02 0.00 0.00 0.00 0.00 0.00 0.00 0.00 0.00 0.00 0.00 0.00 0.00 0.00 0.00 0.00 0.00 0.00 0.00 0.00 0.00 0.00 0.00 0.00 0.00 0.00 0.00 0.00 0.00 0.00 0.00 0.00 0.00 0.00
0.01 0.00 0.00 0.01 0.02 0.03 0.04 0.03 0.02 0.01 0.00 0.00 0.00 0.00 0.00 0.00 0.00 0.00 0.00 0.00 0.00 0.00 0.00 0.00 0.00 0.00 0.00 0.00 0.00 0.00 0.00 0.00 0.00 0.00 0.00 0.00 0.00 0.00 0.00 0.00 0.00 0.00 0.01 0.01
0.01 0.01 0.00 0.01 0.01 0.01 0.01 0.01 0.00 0.00 0.00 0.00 0.00 0.00 0.00 0.00 0.00 0.00 0.00 0.00 0.00 0.00 0.00 0.00 0.00 0.00 0.00 0.00 0.00 0.00 0.00 0.00 0.00 0.01 0.01 0.01 0.01 0.01 0.01 0.01 0.01 0.00 0.00 0.01
0.01 0.02 0.01 0.01 0.02 0.02 0.02 0.01 0.00 0.00 0.00 0.00 0.00 0.00 0.00 0.00 0.00 0.00 0.00 0.00 0.00 0.00 0.00 0.00 0.00 0.00 0.00 0.00 0.00 0.00 0.00 0.01 0.01 0.01 0.01 0.01 0.01 0.01 0.02 0.02 0.01 0.01 0.00 0.00
0.01 0.01 0.01 0.02 0.02 0.02 0.03 0.01 0.00 0.00 0.00 0.00 0.00 0.00 0.00 0.00 0.00 0.00 0.00 0.00 0.00 0.00 0.00 0.00 0.00 0.00 0.00 0.00 0.00 0.00 0.01 0.01 0.01 0.02 0.02 0.02 0.01 0.01 0.01 0.01 0.01 0.01 0.00 0.00
MSLP
1009.09 1009.21 1009.33 1009.49 1009.77 1010.17 1010.70 1011.31 1011.93 1012.46 1012.84 1013.01 1012.97 1012.73 1012.38 1011.98 1011.63 1011.39 1011.32 1011.40 1011.63 1011.94 1012.29 1012.61 1012.88 1013.07 1013.21 1013.30 1013.39 1013.50 1013.66 1013.88 1014.16 1014.46 1014.76 1015.05 1015.29 1015.48 1015.61 1015.69 1015.74 1015.77 1015.79 1015.81
1009.00 1009.00 1008.99 1009.07 1009.30 1009.73 1010.33 1011.05 1011.80 1012.46 1012.93 1013.15 1013.11 1012.84 1012.42 1011.96 1011.57 1011.34 1011.30 1011.46 1011.79 1012.21 1012.64 1013.01 1013.27 1013.40 1013.44 1013.42 1013.40 1013.43 1013.55 1013.76 1014.06 1014.41 1014.77 1015.09 1015.33 1015.48 1015.56 1015.57 1015.55 1015.54 1015.55 1015.61
1008.78 1008.69 1008.59 1008.62 1008.84 1009.31 1009.99 1010.83 1011.70 1012.47 1013.01 1013.27 1013.22 1012.90 1012.41 1011.87 1011.42 1011.16 1011.13 1011.34 1011.73 1012.22 1012.71 1013.12 1013.37 1013.48 1013.45 1013.36 1013.27 1013.25 1013.35 1013.58 1013.92 1014.33 1014.73 1015.08 1015.33 1015.47 1015.50 1015.46 1015.40 1015.35 1015.36 1015.45
1008.51 1008.34 1008.20 1008.21 1008.46 1009.00 1009.79 1010.75 1011.73 1012.60 1013.20 1013.47 1013.39 1012.99 1012.40 1011.76 1011.21 1010.87 1010.80 1011.00 1011.40 1011.92 1012.44 1012.87 1013.13 1013.23 1013.19 1013.07 1012.97 1012.95 1013.07 1013.34 1013.73 1014.20 1014.66 1015.05 1015.32 1015.46 1015.47 1015.40 1015.31 1015.25 1015.27 1015.37
1008.24 1008.02 1007.87 1007.91 1008.22 1008.85 1009.76 1010.84 1011.93 1012.87 1013.52 1013.78 1013.64 1013.15 1012.43 1011.65 1010.96 1010.50 1010.32 1010.44 1010.80 1011.30 1011.83 1012.27 1012.55 1012.67 1012.65 1012.57 1012.50 1012.53 1012.70 1013.04 1013.50 1014.03 1014.55 1014.99 1015.30 1015.45 1015.47 1015.40 1015.31 1015.25 1015.27 1015.38
1008.03 1007.79 1007.65 1007.73 1008.12 1008.84 1009.86 1011.04 1012.22 1013.22 1013.89 1014.13 1013.92 1013.33 1012.47 1011.53 1010.68 1010.05 1009.74 1009.74 1010.01 1010.45 1010.95 1011.39 1011.70 1011.87 1011.92 1011.91 1011.92 1012.03 1012.28 1012.69 1013.23 1013.82 1014.40 1014.89 1015.24 1015.43 1015.48 1015.43 1015.35 1015.30 1015.32 1015.44
1007.93 1007.67 1007.53 1007.65 1008.10 1008.91 1010.00 1011.26 1012.50 1013.53 1014.20 1014.40 1014.13 1013.44 1012.46 1011.37 1010.36 1009.57 1009.10 1008.96 1009.12 1009.48 1009.94 1010.38 1010.73 1010.97 1011.10 1011.19 1011.31 1011.52 1011.86 1012.35 1012.95 1013.60 1014.22 1014.75 1015.14 1015.36 1015.44 1015.42 1015.37 1015.34 1015.37 1015.48
1007.94 1007.65 1007.51 1007.64 1008.13 1008.97 1010.09 1011.37 1012.62 1013.64 1014.29 1014.46 1014.13 1013.37 1012.31 1011.12 1009.99 1009.07 1008.47 1008.21 1008.26 1008.54 1008.96 1009.41 1009.80 1010.11 1010.35 1010.55 1010.78 1011.09 1011.51 1012.06 1012.70 1013.37 1014.00 1014.55 1014.95 1015.20 1015.31 1015.33 1015.31 1015.29 1015.33 1015.42
1008.03 1007.71 1007.55 1007.67 1008.14 1008.95 1010.04 1011.28 1012.48 1013.45 1014.05 1014.19 1013.84 1013.05 1011.96 1010.74 1009.56 1008.58 1007.90 1007.56 1007.54 1007.78 1008.17 1008.62 1009.06 1009.45 1009.78 1010.09 1010.42 1010.80 1011.28 1011.86 1012.49 1013.15 1013.77 1014.29 1014.68 1014.94 1015.07 1015.11 1015.11 1015.11 1015.15 1015.23
1008.17 1007.82 1007.63 1007.71 1008.12 1008.85 1009.84 1010.96 1012.05 1012.93 1013.46 1013.56 1013.20 1012.44 1011.39 1010.21 1009.07 1008.11 1007.43 1007.08 1007.04 1007.26 1007.65 1008.12 1008.61 1009.07 1009.48 1009.87 1010.27 1010.71 1011.21 1011.76 1012.36 1012.96 1013.52 1013.99 1014.34 1014.57 1014.70 1014.75 1014.76 1014.78 1014.82 1014.89
1008.31 1007.96 1007.74 1007.77 1008.08 1008.69 1009.52 1010.47 1011.39 1012.13 1012.56 1012.61 1012.27 1011.57 1010.61 1009.55 1008.53 1007.67 1007.07 1006.77 1006.77 1007.01 1007.42 1007.92 1008.45 1008.96 1009.44 1009.89 1010.32 1010.78 1011.26 1011.77 1012.30 1012.81 1013.27 1013.66 1013.94 1014.13 1014.24 1014.28 1014.31 1014.33 1014.37 1014.44
1008.43 1008.10 1007.89 1007.87 1008.09 1008.54 1009.19 1009.93 1010.64 1011.20 1011.51 1011.49 1011.15 1010.53 1009.71 1008.81 1007.95 1007.25 1006.79 1006.60 1006.66 1006.95 1007.40 1007.93 1008.49 1009.04 1009.55 1010.03 1010.48 1010.92 1011.37 1011.81 1012.25 1012.66 1013.02 1013.31 1013.53 1013.66 1013.74 1013.77 1013.80 1013.83 1013.88 1013.95
1008.50 1008.25 1008.07 1008.04 1008.19 1008.50 1008.96 1009.47 1009.95 1010.31 1010.46 1010.37 1010.02 1009.47 1008.77 1008.04 1007.38 1006.86 1006.55 1006.48 1006.63 1006.98 1007.45 1008.01 1008.58 1009.14 1009.66 1010.15 1010.60 1011.02 1011.42 1011.81 1012.17 1012.49 1012.76 1012.97 1013.11 1013.20 1013.25 1013.28 1013.31 1013.35 1013.41 1013.49
1008.54 1008.41 1008.32 1008.32 1008.43 1008.64 1008.92 1009.22 1009.48 1009.62 1009.60 1009.40 1009.02 1008.50 1007.91 1007.33 1006.83 1006.48 1006.32 1006.35 1006.58 1006.96 1007.44 1007.99 1008.56 1009.10 1009.62 1010.09 1010.53 1010.94 1011.32 1011.67 1011.98 1012.24 1012.45 1012.61 1012.72 1012.79 1012.82 1012.85 1012.88 1012.94 1013.01 1013.10
1008.57 1008.59 1008.63 1008.71 1008.82 1008.97 1009.12 1009.24 1009.28 1009.21 1009.02 1008.69 1008.25 1007.74 1007.21 1006.73 1006.35 1006.12 1006.05 1006.16 1006.42 1006.80 1007.26 1007.77 1008.29 1008.80 1009.29 1009.75 1010.18 1010.59 1010.96 1011.31 1011.61 1011.87 1012.08 1012.23 1012.34 1012.41 1012.46 1012.50 1012.55 1012.61 1012.69 1012.79
1008.60 1008.79 1008.98 1009.16 1009.32 1009.45 1009.52 1009.49 1009.36 1009.12 1008.76 1008.30 1007.78 1007.24 1006.73 1006.29 1005.97 1005.80 1005.77 1005.88 1006.12 1006.46 1006.86 1007.29 1007.74 1008.19 1008.63 1009.07 1009.50 1009.92 1010.33 1010.71 1011.06 1011.36 1011.61 1011.82 1011.97 1012.08 1012.16 1012.23 1012.29 1012.37 1012.45 1012.54
1008.64 1008.98 1009.31 1009.61 1009.85 1009.99 1010.02 1009.91 1009.66 1009.27 1008.77 1008.20 1007.59 1007.00 1006.46 1006.03 1005.71 1005.54 1005.49 1005.57 1005.74 1005.98 1006.27 1006.60 1006.95 1007.31 1007.70 1008.11 1008.54 1008.99 1009.45 1009.90 1010.33 1010.72 1011.06 1011.35 1011.57 1011.75 1011.88 1011.99 1012.07 1012.15 1012.22 1012.29
1008.68 1009.13 1009.58 1009.98 1010.29 1010.48 1010.50 1010.35 1010.03 1009.55 1008.96 1008.30 1007.63 1006.98 1006.41 1005.95 1005.61 1005.39 1005.29 1005.28 1005.35 1005.47 1005.63 1005.82 1006.05 1006.31 1006.63 1007.00 1007.43 1007.91 1008.43 1008.96 1009.49 1010.00 1010.45 1010.84 1011.16 1011.41 1011.60 1011.73 1011.83 1011.90 1011.95 1011.98
1008.71 1009.21 1009.73 1010.20 1010.57 1010.79 1010.84 1010.69 1010.34 1009.84 1009.21 1008.51 1007.80 1007.13 1006.54 1006.05 1005.67 1005.40 1005.23 1005.12 1005.07 1005.06 1005.07 1005.13 1005.22 1005.38 1005.61 1005.94 1006.35 1006.85 1007.42 1008.03 1008.66 1009.26 1009.82 1010.31 1010.71 1011.03 1011.27 1011.43 1011.53 1011.58 1011.59 1011.58
1008.70 1009.19 1009.72 1010.21 1010.61 1010.87 1010.95 1010.83 1010.51 1010.02 1009.41 1008.73 1008.04 1007.38 1006.79 1006.30 1005.91 1005.60 1005.36 1005.17 1005.02 1004.88 1004.76 1004.68 1004.66 1004.70 1004.85 1005.11 1005.49 1005.99 1006.58 1007.24 1007.92 1008.59 1009.22 1009.78 1010.25 1010.61 1010.87 1011.04 1011.13 1011.15 1011.13 1011.07
1008.62 1009.06 1009.55 1010.03 1010.44 1010.72 1010.83 1010.75 1010.49 1010.06 1009.52 1008.91 1008.29 1007.69 1007.15 1006.69 1006.31 1005.99 1005.72 1005.48 1005.24 1005.01 1004.79 1004.61 1004.47 1004.42 1004.47 1004.66 1004.99 1005.45 1006.02 1006.67 1007.37 1008.06 1008.71 1009.29 1009.78 1010.15 1010.41 1010.57 1010.63 1010.62 1010.55 1010.45
1008.47 1008.83 1009.26 1009.69 1010.08 1010.37 1010.52 1010.50 1010.31 1009.98 1009.54 1009.04 1008.52 1008.02 1007.57 1007.18 1006.84 1006.55 1006.29 1006.03 1005.76 1005.48 1005.19 1004.93 1004.71 1004.57 1004.55 1004.65 1004.90 1005.29 1005.80 1006.39 1007.04 1007.69 1008.30 1008.85 1009.30 1009.64 1009.87 1009.99 1010.02 1009.97 1009.88 1009.75
1008.26 1008.55 1008.90 1009.28 1009.64 1009.93 1010.11 1010.15 1010.05 1009.83 1009.51 1009.14 1008.75 1008.37 1008.03 1007.73 1007.48 1007.24 1007.02 1006.78 1006.51 1006.22 1005.91 1005.60 1005.33 1005.13 1005.03 1005.05 1005.20 1005.49 1005.89 1006.38 1006.92 1007.47 1007.99 1008.45 1008.82 1009.09 1009.25 1009.32 1009.31 1009.24 1009.12 1008.99
1008.02 1008.25 1008.55 1008.89 1009.22 1009.51 1009.72 1009.82 1009.81 1009.70 1009.51 1009.27 1009.01 1008.75 1008.53 1008.33 1008.16 1008.00 1007.83 1007.63 1007.40 1007.12 1006.82 1006.51 1006.22 1005.98 1005.81 1005.75 1005.80 1005.97 1006.24 1006.58 1006.96 1007.36 1007.73 1008.06 1008.31 1008.47 1008.56 1008.56 1008.51 1008.41 1008.29 1008.18
1007.80 1008.01 1008.28 1008.60 1008.93 1009.22 1009.46 1009.62 1009.69 1009.67 1009.59 1009.46 1009.31 1009.17 1009.04 1008.93 1008.83 1008.74 1008.63 1008.48 1008.30 1008.07 1007.79 1007.50 1007.21 1006.95 1006.74 1006.61 1006.56 1006.60 1006.71 1006.89 1007.09 1007.31 1007.50 1007.65 1007.75 1007.79 1007.78 1007.71 1007.62 1007.51 1007.40 1007.31
1007.66 1007.88 1008.16 1008.49 1008.82 1009.14 1009.41 1009.61 1009.74 1009.80 1009.80 1009.76 1009.69 1009.62 1009.56 1009.50 1009.46 1009.41 1009.34 1009.24 1009.10 1008.91 1008.68 1008.42 1008.15 1007.88 1007.65 1007.46 1007.32 1007.24 1007.20 1007.20 1007.22 1007.24 1007.24 1007.21 1007.15 1007.05 1006.93 1006.79 1006.65 1006.53 1006.44 1006.40
Thickness
5809 5794 5788 5800 5810 5805 5795 5773 5759 5762 5782 5778 5766 5749 5745 5750 5747 5743 5745 5748 5748 5748 5753 5755 5756 5755 5752 5749 5745 5743 5740 5738 5735 5732 5729 5726 5723 5722 5722 5719 5714 5710 5707 5705
5801 5794 5810 5820 5818 5807 5792 5769 5761 5773 5787 5779 5759 5748 5754 5756 5748 5747 5746 5745 5747 5747 5748 5750 5753 5754 5752 5748 5745 5743 5740 5737 5734 5732 5728 5725 5722 5721 5721 5718 5714 5710 5706 5703
5802 5812 5826 5819 5808 5795 5782 5771 5774 5774 5783 5779 5756 5737 5746 5759 5758 5753 5750 5749 5751 5750 5747 5749 5752 5753 5753 5749 5747 5745 5741 5738 5734 5732 5729 5727 5723 5719 5718 5716 5713 5709 5705 5702
5812 5824 5821 5813 5804 5802 5782 5795 5793 5785 5770 5752 5746 5722 5742 5755 5753 5753 5751 5752 5755 5756 5753 5753 5754 5755 5755 5753 5752 5748 5743 5739 5735 5731 5727 5722 5718 5714 5715 5713 5712 5709 5705 5702
5808 5819 5814 5807 5807 5809 5802 5808 5791 5772 5751 5739 5735 5733 5742 5757 5749 5753 5758 5761 5763 5763 5761 5759 5759 5759 5759 5758 5755 5750 5744 5739 5735 5731 5726 5721 5717 5716 5714 5712 5709 5707 5705 5703
5815 5825 5823 5819 5821 5816 5810 5799 5777 5752 5729 5706 5733 5741 5740 5759 5761 5764 5768 5769 5769 5769 5768 5765 5765 5763 5761 5760 5757 5752 5744 5738 5734 5730 5726 5721 5716 5712 5708 5706 5703 5702 5702 5701
5791 5800 5817 5823 5810 5803 5795 5776 5749 5716 5696 5706 5749 5751 5754 5777 5784 5780 5776 5775 5775 5774 5771 5767 5765 5763 5761 5759 5756 5752 5745 5738 5734 5730 5725 5721 5717 5712 5707 5703 5702 5700 5698 5696
5774 5766 5794 5814 5811 5796 5794 5786 5760 5741 5733 5738 5757 5758 5773 5792 5795 5793 5789 5784 5780 5776 5774 5771 5769 5766 5763 5760 5756 5752 5745 5739 5734 5730 5725 5721 5716 5711 5708 5706 5702 5698 5694 5691
5791 5784 5813 5822 5824 5811 5793 5792 5799 5781 5771 5749 5752 5770 5776 5792 5790 5790 5787 5783 5779 5779 5777 5775 5773 5770 5765 5761 5758 5753 5745 5738 5734 5730 5725 5719 5714 5709 5705 5702 5698 5695 5693 5690
5808 5790 5811 5820 5819 5814 5806 5800 5790 5773 5751 5739 5734 5743 5749 5769 5778 5784 5784 5782 5782 5781 5780 5777 5775 5772 5768 5764 5758 5752 5745 5737 5733 5729 5724 5721 5715 5710 5705 5700 5696 5692 5688 5685
5813 5788 5794 5799 5784 5785 5789 5790 5785 5780 5773 5750 5726 5725 5768 5778 5785 5786 5786 5787 5785 5783 5782 5780 5777 5774 5769 5764 5757 5749 5742 5736 5731 5726 5722 5717 5713 5709 5705 5700 5695 5691 5687 5683
5809 5793 5779 5782 5793 5800 5795 5792 5786 5764 5758 5763 5755 5747 5791 5794 5798 5796 5794 5793 5791 5789 5787 5784 5779 5774 5767 5761 5755 5747 5741 5735 5730 5726 5721 5716 5711 5706 5702 5698 5695 5691 5686 5681
5801 5780 5759 5753 5751 5765 5773 5788 5790 5784 5771 5761 5751 5751 5790 5795 5796 5798 5795 5793 5792 5789 5786 5783 5777 5770 5764 5758 5753 5747 5741 5736 5732 5726 5720 5714 5709 5705 5700 5696 5692 5688 5683 5678
5800 5777 5761 5743 5742 5758 5766 5779 5786 5780 5766 5760 5761 5761 5778 5787 5790 5792 5792 5791 5790 5787 5783 5778 5771 5766 5761 5756 5751 5745 5740 5737 5732 5726 5719 5713 5708 5703 5699 5695 5690 5685 5680 5675
5793 5772 5773 5776 5782 5782 5780 5785 5790 5784 5779 5769 5771 5774 5780 5787 5790 5792 5793 5790 5786 5781 5778 5773 5767 5762 5757 5752 5748 5743 5739 5735 5730 5723 5716 5711 5707 5702 5697 5692 5687 5682 5677 5672
5784 5768 5767 5767 5783 5786 5783 5790 5790 5787 5784 5780 5779 5777 5792 5795 5794 5791 5789 5786 5781 5778 5776 5772 5767 5761 5755 5750 5745 5741 5736 5732 5726 5719 5714 5710 5704 5699 5693 5689 5684 5678 5673 5667
5777 5767 5757 5755 5773 5768 5759 5772 5774 5780 5785 5781 5772 5778 5790 5787 5785 5784 5785 5784 5780 5779 5777 5773 5768 5762 5756 5751 5746 5740 5735 5730 5723 5716 5711 5706 5701 5694 5689 5685 5679 5673 5667 5661
5775 5764 5758 5755 5755 5735 5758 5777 5778 5778 5781 5785 5783 5785 5787 5785 5787 5788 5787 5783 5780 5779 5776 5773 5770 5764 5760 5754 5748 5741 5735 5728 5721 5714 5709 5703 5698 5691 5686 5679 5672 5666 5661 5654
5782 5767 5756 5751 5744 5749 5761 5767 5764 5755 5756 5774 5774 5777 5782 5786 5782 5777 5782 5783 5779 5778 5777 5775 5772 5767 5761 5755 5749 5740 5733 5726 5718 5712 5706 5700 5694 5687 5679 5671 5665 5659 5653 5647
5771 5768 5754 5749 5739 5733 5748 5759 5763 5752 5734 5758 5761 5761 5766 5770 5755 5757 5772 5775 5774 5775 5774 5772 5770 5765 5758 5753 5748 5738 5729 5722 5715 5709 5703 5698 5691 5682 5674 5666 5659 5652 5646 5640
5734 5739 5746 5746 5739 5741 5749 5758 5755 5722 5716 5745 5754 5757 5759 5754 5753 5760 5767 5767 5768 5767 5767 5766 5762 5757 5753 5749 5742 5732 5725 5717 5712 5706 5699 5692 5685 5676 5669 5661 5654 5646 5639 5633
5740 5737 5739 5740 5724 5715 5741 5741 5726 5722 5739 5745 5749 5752 5750 5750 5752 5753 5752 5752 5753 5753 5754 5754 5749 5746 5745 5741 5733 5724 5717 5713 5707 5700 5693 5686 5678 5671 5665 5656 5648 5641 5634 5627
5761 5761 5756 5747 5735 5734 5737 5732 5734 5739 5736 5739 5741 5742 5742 5738 5736 5735 5734 5734 5735 5735 5735 5735 5733 5730 5730 5728 5722 5713 5709 5704 5698 5690 5683 5676 5670 5663 5656 5648 5641 5634 5628 5622
5754 5761 5752 5738 5728 5730 5732 5734 5734 5735 5732 5732 5732 5731 5728 5723 5721 5718 5717 5717 5717 5717 5717 5716 5713 5711 5710 5710 5708 5704 5700 5694 5686 5679 5673 5667 5660 5654 5648 5642 5636 5629 5623 5618
5752 5747 5742 5731 5725 5723 5720 5725 5726 5726 5725 5722 5719 5717 5713 5709 5705 5704 5701 5699 5699 5699 5699 5698 5696 5694 5693 5693 5691 5688 5684 5679 5671 5666 5661 5656 5651 5647 5641 5636 5631 5627 5622 5616
5746 5740 5734 5725 5727 5721 5710 5717 5719 5714 5710 5707 5703 5699 5698 5694 5690 5688 5686 5685 5684 5683 5682 5681 5680 5678 5677 5677 5674 5672 5669 5663 5657 5651 5648 5645 5642 5638 5635 5631 5628 5625 5618 5613